Theta_e
336 344 350 353 354 353 351 351 352 351 351 347 346 344 343 342 341 341 340 340 340 340 342 344 344 342 343 344 345 344 343 341 341 341 341 341 341 342 343 342 344 343 347
342 346 348 353 353 352 351 352 352 352 351 348 345 344 342 342 340 339 339 339 338 338 340 341 341 342 342 342 342 343 343 341 340 339 338 338 339 338 339 338 341 341 345
343 347 347 349 352 352 352 352 351 351 350 347 346 345 342 341 340 338 338 337 336 336 335 338 340 340 341 340 341 343 342 340 339 337 335 328 330 337 337 337 337 338 341
345 347 347 348 352 352 352 351 350 351 350 347 345 344 343 341 339 337 337 336 334 333 334 335 336 337 339 336 339 340 338 336 334 333 328 327 329 335 336 335 336 336 337
344 346 346 347 351 352 351 351 351 349 349 348 346 344 342 340 338 336 335 333 331 330 329 330 331 333 334 334 336 336 334 331 329 325 323 325 325 332 334 334 333 333 333
343 345 343 347 351 351 350 350 350 350 349 348 346 344 342 340 338 336 335 332 329 326 326 326 326 329 330 330 331 332 329 326 322 317 318 323 322 331 332 332 332 331 331
341 343 343 345 347 347 348 348 349 349 348 348 346 343 341 339 338 337 336 334 332 325 323 323 323 325 325 326 328 327 324 321 313 314 315 318 323 330 331 331 332 331 330
340 342 343 338 341 344 347 347 347 347 347 347 346 342 341 339 338 337 335 334 333 326 321 320 320 322 322 322 323 321 317 314 309 309 311 314 331 330 330 330 331 331 330
334 338 339 340 338 337 340 341 343 345 344 345 344 343 341 340 339 336 335 334 332 328 324 320 319 319 319 319 319 318 314 311 302 307 312 314 329 329 331 329 330 330 330
314 317 325 337 337 338 339 334 336 339 340 341 340 337 335 335 336 335 332 334 332 329 326 321 320 318 318 317 316 313 310 308 299 303 306 315 326 327 328 330 329 329 329
309 310 311 323 337 339 340 335 332 333 335 335 334 331 329 334 333 332 329 333 332 330 328 324 320 317 313 314 313 309 305 297 299 301 306 321 322 324 325 326 327 330 331
304 310 309 312 317 325 339 339 339 337 338 337 336 332 332 332 331 330 325 327 328 328 328 324 320 315 308 302 301 304 298 297 298 299 307 322 323 324 325 324 324 325 326
303 307 309 311 313 314 328 336 339 337 337 336 334 332 331 329 328 324 325 322 318 317 316 315 311 309 306 305 304 302 301 300 299 301 313 320 323 325 324 324 324 323 323
304 305 308 309 311 311 313 332 333 332 332 334 333 331 329 327 326 324 323 321 317 315 312 312 311 311 309 308 307 306 304 302 301 304 310 316 319 321 323 323 324 324 323
303 303 306 307 310 312 311 330 329 328 328 330 332 331 329 326 325 325 322 320 315 313 311 309 308 308 309 308 308 307 305 303 300 301 306 312 315 317 316 317 319 321 321
303 303 306 310 311 312 320 325 324 323 323 324 325 328 328 327 324 320 317 315 313 313 309 308 306 305 306 305 305 305 303 300 299 298 298 299 309 310 309 312 315 316 318
302 303 307 310 315 317 320 319 318 318 318 317 317 319 320 320 318 315 313 312 310 311 308 307 305 303 303 304 302 302 299 298 297 296 294 293 294 301 303 308 309 311 314
300 303 306 313 313 315 315 314 314 314 314 313 313 314 314 314 313 311 310 308 308 306 303 299 297 297 298 300 298 297 296 295 293 292 290 290 290 291 294 301 303 305 309
300 303 303 309 310 311 309 307 306 307 308 308 310 309 309 309 308 307 305 303 303 300 295 293 291 293 295 296 296 294 293 290 287 288 288 287 287 287 287 293 295 299 303
299 302 302 307 307 305 304 301 301 300 300 302 303 304 304 302 301 299 297 297 296 293 290 289 289 289 290 293 294 291 289 289 286 284 284 286 285 285 285 285 286 289 300
298 300 300 305 304 303 301 301 300 297 296 296 297 297 297 295 294 292 292 290 289 289 288 287 286 289 286 286 291 290 290 286 285 284 282 283 283 284 284 285 286 287 289
298 299 300 305 303 303 304 297 294 295 292 292 293 292 292 290 289 289 288 286 286 285 284 284 284 283 282 283 289 289 286 289 286 283 282 282 281 282 283 284 284 286 286
297 299 300 304 304 302 296 293 291 291 291 290 290 289 289 288 287 287 286 285 284 284 282 282 282 282 280 282 282 285 279 279 281 285 281 281 281 281 281 282 283 284 283
298 299 301 303 302 295 295 294 294 294 292 289 288 287 286 285 285 285 284 284 283 283 282 281 282 281 281 279 281 283 280 280 277 276 279 279 280 280 279 280 280 282 282
298 300 303 301 295 295 294 294 294 293 288 287 287 286 283 283 283 283 283 282 282 282 281 281 281 281 281 280 279 279 279 278 278 277 275 277 278 279 279 279 279 279 280
298 303 303 295 294 294 293 293 291 287 286 285 285 284 282 282 282 282 282 282 282 282 282 281 281 280 280 280 280 280 279 277 277 275 275 275 275 277 278 279 278 279 278
Wind_Speed
3 5 9 12 13 14 15 14 14 14 16 17 18 17 17 17 17 17 17 16 16 16 16 16 17 16 16 17 17 14 14 17 20 20 21 21 21 20 21 21 18 15 20
7 6 10 11 12 13 13 12 13 13 16 17 16 16 16 16 16 16 17 15 15 15 15 15 16 16 17 18 17 15 17 17 17 16 17 16 19 20 20 19 18 16 20
8 6 7 12 12 13 12 11 11 13 16 16 15 15 15 16 15 16 15 15 15 15 14 14 15 16 17 18 18 21 20 18 17 17 15 6 10 19 19 18 18 16 18
8 7 6 11 12 12 12 11 11 13 15 16 15 14 16 14 16 16 16 15 15 15 14 15 15 16 17 17 18 19 19 18 17 16 9 8 9 18 18 18 18 17 17
7 7 7 10 11 12 11 11 10 12 13 15 14 15 15 15 16 16 15 15 15 14 15 15 15 16 16 18 18 18 18 17 17 11 7 7 6 14 17 17 15 16 17
7 7 8 11 11 12 12 12 12 13 13 13 14 15 15 14 15 14 15 15 14 14 15 15 15 16 16 17 17 17 17 16 13 7 7 8 6 15 16 16 16 16 16
6 7 8 10 10 9 10 12 11 11 13 12 15 15 14 14 14 14 14 13 13 14 14 15 15 15 15 16 16 17 17 16 8 7 7 7 7 16 17 16 16 17 17
8 6 6 9 9 9 8 10 10 10 11 12 14 15 14 13 13 13 13 13 13 13 14 14 14 15 15 16 16 17 16 14 8 7 7 6 13 16 16 17 16 17 17
6 6 4 4 8 9 8 8 9 10 10 12 14 14 12 12 13 12 11 14 13 13 13 13 14 14 14 15 16 15 16 16 8 6 6 5 13 16 16 16 16 16 17
7 6 4 4 4 6 6 8 8 9 9 11 12 12 11 10 10 8 6 9 13 13 13 13 13 14 16 16 16 15 15 15 7 6 5 5 15 17 17 16 15 15 16
5 6 4 3 3 3 5 5 10 10 10 10 11 11 9 5 5 7 7 8 10 11 11 12 14 14 14 16 17 16 13 4 6 5 4 14 17 18 18 18 18 16 15
3 3 2 3 3 3 2 6 5 7 7 7 7 8 4 5 4 5 7 10 9 9 11 13 14 14 10 5 5 11 5 6 5 5 5 17 20 20 21 21 20 20 21
3 1 1 1 1 2 2 1 1 2 4 4 7 6 5 4 4 3 3 3 3 6 4 6 6 5 7 5 5 5 5 6 4 5 10 18 21 21 21 20 20 20 21
5 3 1 2 3 2 1 2 2 2 3 4 6 8 6 3 3 3 3 3 4 3 5 5 4 5 7 7 7 7 7 6 6 5 10 19 22 23 23 23 22 22 22
5 4 3 3 3 4 2 3 3 3 2 3 6 7 7 5 5 5 4 4 4 4 4 4 4 5 6 7 6 7 8 9 9 6 7 22 22 23 25 23 23 23 22
5 5 2 3 4 3 3 3 4 3 4 4 3 5 6 5 5 6 5 5 4 4 4 4 4 4 5 5 7 7 9 9 10 10 7 9 24 25 25 24 25 24 24
5 5 4 3 3 5 4 5 4 3 4 5 4 7 8 8 7 7 6 5 4 4 6 4 5 5 5 6 8 9 9 10 10 10 9 8 9 21 26 25 26 26 25
5 5 4 3 3 6 5 5 4 4 5 5 5 6 9 8 9 7 6 5 4 4 3 5 4 6 6 6 6 7 7 9 10 10 9 8 8 8 14 24 24 25 25
7 7 6 4 5 5 7 6 6 6 5 5 4 6 8 7 8 8 6 5 5 4 4 4 5 4 5 6 8 7 7 8 8 8 11 11 10 9 8 18 22 25 24
7 6 6 5 7 7 6 6 5 5 5 5 4 6 8 7 9 9 6 6 4 6 5 5 6 6 5 5 9 8 6 5 6 7 7 7 8 9 8 10 9 11 23
7 7 7 8 8 8 6 5 4 4 4 4 4 7 8 7 8 9 6 6 5 6 5 4 4 8 7 4 5 4 5 5 7 6 4 5 8 7 9 9 7 6 8
9 9 9 10 11 8 6 3 4 4 4 4 4 6 7 7 7 7 7 5 5 6 6 5 4 4 4 4 3 3 2 1 3 4 5 5 7 5 8 8 9 10 9
11 11 11 12 12 9 9 8 7 7 5 4 4 5 5 6 7 7 7 6 6 5 6 5 5 7 5 4 7 4 3 2 1 2 4 5 6 5 5 5 9 9 9
12 10 11 12 12 10 11 9 15 9 8 3 4 5 5 6 6 6 7 7 7 5 7 5 3 5 6 5 4 6 7 3 3 2 2 3 4 5 5 5 5 6 8
12 13 12 11 11 12 11 11 9 9 6 7 7 10 6 5 6 6 7 7 8 6 5 6 6 8 4 4 3 3 3 4 4 3 1 5 3 3 3 4 4 4 7
11 13 13 13 11 13 11 11 10 14 14 11 10 9 6 4 4 5 6 7 7 7 7 6 7 9 7 7 5 5 3 3 2 3 2 2 3 5 3 2 4 4 4
Wind_Direction
187 160 129 122 126 120 116 119 113 114 105 100 92 89 83 78 79 77 73 68 67 68 64 59 59 62 63 65 54 53 61 68 65 62 57 53 50 44 39 35 28 32 39
138 150 140 132 126 120 122 123 117 118 109 104 98 94 89 85 80 75 76 73 69 67 66 65 68 63 61 58 50 58 87 79 66 59 56 50 51 49 47 40 31 31 34
150 148 140 134 128 126 126 123 121 118 114 108 105 99 86 84 80 77 77 75 72 68 69 68 64 63 65 59 59 70 84 73 61 53 45 28 50 48 45 44 43 38 34
142 140 138 135 135 132 130 129 129 125 122 116 112 101 93 89 80 77 76 76 69 68 66 64 63 63 63 60 69 74 73 67 61 51 44 34 39 48 47 45 43 39 31
141 140 150 146 143 139 135 130 131 131 124 121 122 110 102 93 85 80 81 76 71 68 68 68 67 67 68 68 74 77 74 68 59 48 39 39 33 46 48 48 45 38 33
152 145 156 154 153 151 144 140 141 137 134 133 128 111 106 103 97 93 83 80 79 78 76 73 72 74 74 74 79 80 75 72 64 46 39 32 39 51 50 48 47 41 37
156 148 160 160 160 157 155 146 147 145 141 137 129 120 117 110 103 92 85 82 77 76 76 74 73 74 74 73 76 77 71 65 55 45 31 21 40 48 48 46 45 42 39
155 157 166 166 165 164 159 149 145 147 146 137 131 129 125 119 110 102 96 87 82 81 79 78 78 77 77 76 77 76 72 68 55 48 30 16 42 49 47 45 44 42 39
80 98 100 176 170 155 157 158 155 156 153 140 141 136 133 134 128 122 115 107 96 90 86 83 82 80 77 77 75 74 68 62 53 38 25 6 46 49 47 49 46 45 42
62 68 66 111 136 150 168 170 163 156 153 147 142 139 143 138 135 129 102 100 101 97 89 79 72 70 67 68 68 66 62 55 45 34 16 12 46 48 46 39 47 44 42
51 61 28 71 109 203 164 162 168 158 153 151 144 146 140 138 135 126 105 81 93 92 90 88 76 68 62 60 62 62 60 49 47 30 4 33 46 47 45 41 34 34 34
128 94 37 46 38 329 164 165 175 169 167 161 159 144 127 126 111 105 106 96 77 67 82 82 78 68 58 50 49 55 51 46 42 29 20 42 48 48 44 39 36 32 26
162 143 80 20 334 267 266 105 195 130 145 148 143 139 131 118 120 106 98 89 79 66 55 52 49 54 56 56 53 54 57 56 48 41 34 46 51 48 46 44 44 40 36
182 194 238 311 292 256 268 157 121 119 132 148 152 143 136 130 124 114 105 100 87 63 65 56 49 59 58 50 52 53 51 53 51 46 37 47 52 50 47 43 42 40 38
197 210 252 298 278 278 201 131 117 106 109 110 151 150 145 145 138 117 94 76 72 74 79 73 64 61 64 61 52 60 59 65 62 55 47 47 49 51 47 40 39 36 33
205 217 232 266 248 230 212 127 112 105 92 83 83 129 135 132 119 108 100 94 80 84 79 82 89 79 69 64 61 57 68 64 60 56 46 38 47 47 42 40 39 35 34
205 206 206 207 189 180 122 100 95 76 88 80 78 80 100 108 111 112 109 97 90 91 97 80 77 71 74 68 62 67 69 64 60 56 49 44 37 37 38 39 36 33 32
185 194 187 168 127 162 117 102 94 84 89 85 82 88 89 102 107 112 100 91 88 83 87 86 74 72 69 71 78 68 67 71 66 59 54 48 41 33 29 37 34 30 29
191 179 176 169 138 124 98 92 82 80 86 87 92 94 95 98 103 103 100 94 87 86 67 80 60 90 87 75 81 70 62 62 52 56 50 44 39 38 33 31 32 30 30
187 179 170 152 136 118 105 101 87 79 68 70 85 98 106 100 99 103 100 94 90 89 71 68 92 61 76 91 87 71 60 59 60 52 47 44 40 36 38 32 23 18 30
186 172 173 157 151 142 138 133 120 109 92 74 70 90 89 98 99 102 103 101 85 96 103 95 89 85 45 25 98 71 49 52 65 45 32 46 38 29 33 35 37 32 23
183 181 170 172 162 162 160 113 114 125 77 78 76 79 82 89 91 100 109 105 103 107 92 76 74 105 76 12 114 98 132 329 47 54 33 40 38 30 34 36 35 37 29
189 182 175 175 170 160 130 114 98 94 95 91 82 83 68 84 89 103 104 110 97 99 97 95 118 117 127 40 53 126 107 209 338 5 33 32 33 33 23 27 34 39 33
190 175 176 176 167 149 149 147 159 152 152 133 116 116 97 82 93 101 105 104 105 100 93 103 97 106 112 118 71 47 61 123 134 351 3 5 13 35 28 30 33 37 31
173 176 174 168 162 158 158 162 160 135 106 119 123 118 104 91 95 103 112 114 105 96 104 107 89 80 69 103 102 141 76 58 52 94 324 331 341 359 40 30 40 39 28
170 177 171 163 166 162 158 161 153 142 141 139 143 132 136 128 121 112 114 115 111 114 106 97 93 89 94 89 87 70 99 106 69 79 75 324 326 314 343 54 48 30 32